Weather History for Abilene, TX

Change the Weather History Date:

Wednesday, September 14, 2011

  Actual Average Record
Temperature  
Mean Temperature 84 °F 76 °F  
Max Temperature 93 °F 87 °F 101 °F (1965)
Min Temperature 74 °F 65 °F 47 °F (1945)
Degree Days  
Heating Degree Days 0 0  
Month to date heating degree days 0 0  
Since 1 July heating degree days 0 0  
Cooling Degree Days 19 11  
Month to date cooling degree days 192 185  
Year to date cooling degree days 3157 2130  
Growing Degree Days 34 (Base 50)    
Moisture  
Dew Point 54 °F    
Average Humidity 43    
Maximum Humidity 56    
Minimum Humidity 29    
Precipitation  
Precipitation 0.01 in 0.08 in 2.85 in (1996)
Month to date precipitation 0.01 1.12  
Year to date precipitation 10.40 18.08  
Sea Level Pressure  
Sea Level Pressure 29.88 in    
Wind  
Wind Speed 10 mph (WSW)    
Max Wind Speed 21 mph    
Max Gust Speed 29 mph    
Visibility 10 miles    
Events Rain    
T = Trace of Precipitation, MM = Missing Value Source: NWS Daily Summary

Daily Weather History Graph

Daily Weather History Graph

Search for Another Location

Airport:

Trip Planner

Search our weather history database for the weather conditions in past years. The results will help you decide how hot, cold, wet, or windy it might be!

Date:

Astronomy

Sep. 14, 2011 Rise Set
Actual Time 7:21 AM CDT 7:46 PM CDT
Civil Twilight 6:57 AM CDT 8:11 PM CDT
Nautical Twilight 6:28 AM CDT 8:39 PM CDT
Astronomical Twilight 5:58 AM CDT 9:09 PM CDT
Moon 8:45 PM CDT (9/14) 9:22 AM CDT (9/14)
Length of Visible Light 13h 13m
Length of Day
12h 24m
Waning Gibbous, 95% of the Moon is Illuminated
Sep 14
Waning Gibbous
Sep 20
Last Quarter
Sep 27
New
Oct 3
First Quarter
Oct 11
Full

Hourly Weather History & Observations

Time (CDT) Temp. Heat Index Dew Point Humidity Pressure Visibility Wind Dir Wind Speed Gust Speed Precip Events Conditions
12:52 AM 86.0 °F - 50.0 °F 29% 29.83 in 10.0 mi South 10.4 mph - N/A   Clear
1:52 AM 84.9 °F - 51.1 °F 31% 29.82 in 10.0 mi South 15.0 mph 21.9 mph N/A   Clear
2:52 AM 82.9 °F - 50.0 °F 32% 29.81 in 10.0 mi South 12.7 mph - N/A   Clear
3:52 AM 82.0 °F - 48.9 °F 31% 29.81 in 10.0 mi SSW 10.4 mph - N/A   Clear
4:52 AM 79.0 °F - 50.0 °F 36% 29.84 in 10.0 mi WSW 9.2 mph - N/A   Clear
5:52 AM 79.0 °F - 46.9 °F 32% 29.84 in 10.0 mi SSW 9.2 mph - N/A   Clear
6:52 AM 78.1 °F - 46.9 °F 33% 29.86 in 10.0 mi SW 8.1 mph - N/A   Clear
7:52 AM 78.1 °F - 46.0 °F 32% 29.89 in 10.0 mi SW 3.5 mph - N/A   Clear
8:52 AM 80.1 °F - 50.0 °F 35% 29.91 in 10.0 mi SSW 8.1 mph - N/A   Clear
9:52 AM 81.0 °F 80.4 °F 53.1 °F 38% 29.92 in 10.0 mi SW 5.8 mph - 0.00 in   Clear
10:52 AM 88.0 °F 87.1 °F 59.0 °F 37% 29.91 in 10.0 mi WSW 11.5 mph - N/A   Clear
11:52 AM 90.0 °F 89.1 °F 59.0 °F 35% 29.91 in 10.0 mi WSW 12.7 mph - N/A   Clear
2:52 PM 89.1 °F 88.2 °F 59.0 °F 36% 29.89 in 10.0 mi North 11.5 mph - 0.00 in   Clear
3:52 PM 91.9 °F 90.8 °F 57.9 °F 32% 29.87 in 10.0 mi NNE 9.2 mph - N/A   Clear
4:52 PM 89.1 °F 87.3 °F 55.9 °F 32% 29.87 in 10.0 mi North 17.3 mph - N/A   Scattered Clouds
5:52 PM 87.1 °F 85.9 °F 57.0 °F 36% 29.90 in 9.0 mi North 11.5 mph 21.9 mph 0.00 in Rain Light Rain
6:52 PM 84.9 °F 83.7 °F 55.9 °F 37% 29.93 in 10.0 mi NNE 13.8 mph 20.7 mph 0.01 in   Mostly Cloudy
7:52 PM 80.1 °F 80.7 °F 59.0 °F 48% 29.90 in 10.0 mi NNE 12.7 mph - N/A   Clear
8:52 PM 77.0 °F - 60.1 °F 56% 29.91 in 10.0 mi NE 4.6 mph - N/A   Clear
9:52 PM 79.0 °F - 57.9 °F 48% 29.93 in 10.0 mi ENE 9.2 mph - N/A   Clear
10:52 PM 77.0 °F - 57.9 °F 52% 29.94 in 10.0 mi NE 5.8 mph - N/A   Clear
11:52 PM 75.0 °F - 57.9 °F 55% 29.94 in 10.0 mi ENE 4.6 mph - N/A   Clear